Lid_Strength_Index
11 13 15 14 13 15 14 16 17 16 14 14 14 14 13 12 13 12 12 11 11 11 10 10 10 10 6 4 2 2 2 2 2 1 2 1 2 1 2 3 3 3 4 5
13 15 13 12 13 14 15 16 17 15 14 14 15 14 13 13 12 11 11 12 12 12 12 11 11 11 10 6 3 2 1 1 1 1 1 1 1 1 1 2 2 3 3 4
14 14 12 12 14 14 16 16 17 16 16 15 16 17 16 14 14 13 12 11 11 12 11 11 11 11 12 10 6 3 2 1 1 1 1 3 2 3 2 2 3 3 3 4
14 13 13 14 15 14 17 14 14 15 16 18 17 21 18 16 14 14 12 13 13 13 13 13 12 12 12 12 11 6 3 2 1 1 1 2 2 3 2 1 2 3 3 4
14 13 14 15 14 13 15 13 14 16 17 18 19 19 18 17 15 13 14 13 12 11 11 10 10 10 11 11 12 10 5 3 2 1 1 1 2 1 1 2 3 3 3 3
14 12 12 13 13 13 12 14 15 16 17 20 18 18 19 17 15 15 14 13 12 12 11 11 11 10 10 10 8 8 6 4 3 2 2 1 2 2 4 2 3 4 3 3
14 14 12 12 13 13 15 15 19 20 21 20 19 19 18 15 15 15 14 13 13 13 11 11 11 11 11 10 10 7 5 5 4 4 4 3 3 5 4 4 3 5 5 6
17 18 13 12 13 14 15 15 18 23 22 20 18 19 17 15 14 13 12 12 12 12 11 11 11 11 11 10 10 9 7 6 6 5 6 6 6 7 7 5 5 5 4 4
17 17 13 13 12 11 14 16 15 18 26 22 19 18 14 14 12 12 12 12 12 13 12 12 11 11 11 10 10 10 9 9 8 7 7 7 7 7 7 7 7 6 5 5
13 16 14 13 12 12 13 12 16 18 24 24 20 20 18 15 13 13 13 13 12 12 12 11 11 11 11 10 10 9 9 9 9 8 7 7 7 7 7 8 8 8 8 8
13 14 15 13 14 14 15 15 15 15 17 21 23 20 16 14 12 13 13 12 13 12 13 12 12 12 11 11 11 10 10 9 9 9 9 9 8 8 8 9 8 9 9 9
12 14 17 15 13 13 14 14 14 16 19 19 18 18 13 12 12 12 12 11 12 12 13 12 11 11 11 11 11 11 11 10 10 10 10 10 10 10 10 10 10 10 10 11
12 15 21 17 14 14 15 15 14 15 16 18 20 18 13 12 12 12 12 12 12 12 13 12 11 12 12 12 12 12 12 12 12 11 11 11 11 11 11 11 11 11 11 11
9 14 14 17 17 15 15 15 14 13 17 16 17 16 14 13 12 12 13 13 13 13 12 12 12 12 12 12 12 13 13 13 13 12 12 12 12 12 12 12 12 12 12 12
11 16 15 15 15 15 15 15 14 14 14 16 15 15 12 12 12 12 13 13 12 12 12 12 12 12 13 12 12 13 13 13 14 13 13 14 14 13 13 14 14 13 13 13
11 18 16 17 14 14 16 15 14 13 13 13 16 16 14 13 13 14 13 13 13 13 13 13 13 13 13 13 13 13 13 14 14 13 14 14 14 14 14 14 14 14 14 14
12 14 16 17 15 14 16 15 14 14 13 13 16 13 13 14 13 14 14 13 13 13 13 14 14 14 14 14 14 14 14 14 14 14 14 14 14 15 14 14 15 14 14 14
13 13 14 17 15 20 14 14 12 13 13 13 14 13 12 13 14 14 13 14 14 14 15 15 15 15 15 15 15 14 14 14 14 14 14 14 14 14 14 15 15 15 14 14
11 12 15 17 18 16 16 16 14 14 13 12 12 15 15 15 15 16 15 14 14 14 15 15 15 15 15 15 15 15 15 15 14 14 14 14 14 15 15 15 15 14 16 14
12 12 14 18 19 20 18 17 14 12 15 13 13 15 15 14 16 17 14 15 15 15 15 16 16 16 17 16 16 16 16 16 16 15 15 15 15 17 17 15 15 16 18 15
15 14 16 18 19 20 17 15 14 17 17 17 12 13 14 14 14 14 15 16 16 16 16 17 18 18 18 17 17 18 17 17 17 16 16 16 16 16 16 16 18 16 16 16
15 16 16 17 18 20 17 15 15 15 17 16 14 13 15 16 15 15 16 16 17 17 17 18 19 19 18 18 19 19 19 18 18 18 18 18 17 16 15 16 16 16 18 17
16 13 15 15 16 15 16 16 14 14 16 16 16 15 15 16 16 15 16 17 17 18 17 19 20 19 19 19 19 21 20 19 19 21 20 20 18 17 16 17 16 15 19 14
17 15 16 16 15 16 16 16 15 15 16 16 15 16 16 16 16 17 17 17 18 19 20 21 21 21 21 22 21 23 22 22 23 23 22 21 20 18 16 14 14 15 15 15
16 15 17 17 16 17 16 16 16 15 15 16 16 16 17 17 18 18 19 19 19 20 21 21 21 21 22 22 23 24 22 24 24 24 23 22 19 19 17 14 13 12 12 13
15 15 16 17 15 14 15 15 15 15 16 17 18 18 18 17 17 18 19 20 21 22 22 22 22 23 24 24 25 26 27 28 26 25 23 23 22 21 19 18 16 12 10 9